TOURFACTS.DK  
Stats and Facts from Tour de France.

Tour de France 2019 starts in 324 days
  Riders   Stages   Teams   Summits   Yearly  


 
Search by year

After 2018 - Stage 21:
 15000 starters.
  5165 different riders.
  638 teams.
  2253 stages.
  456 restdays.
  442940.60 km.
  5684 abandonnees.


Top 3
GC
Geraint Thomas83:17:13
Tom Dumoulin83:19:04
Christopher Froome83:19:37
Climb
Julian Alaphilippe170 pt.
Warren Barguil91 pt.
Rafal Majka76 pt.
Sprint
Peter Sagan477 pt.
Alexander Kristoff246 pt.
Arnaud Démare203 pt.
Youth
Pierre-Roger Latou..83:39:26
Egan Bernal83:45:05
Guillaume Martin84:01:31
Facts from Tour de France 1975
  |   Stages.  |   Stage winners.  |   Days in yellow  |   Average speed.  |   Route.  |   Teams.  |   All riders.  |   Rookies.  |  

  |   Withdrawls.  |   GC.  |   Polka  |   Green  |   White  |   Summits. (In tour)  |   Miscellaneous.  |  

Stage 14 on 11 - 07 - 1975
         Owning:    Eddy Merckx    
Pick a stage:  Pro 1a 1b 2 3 4 5 6 7 8 9a 9b 10 11 12 13 14 15 16 17 18 19 20 21 22
  AurillacPuy-de-Dôme | Dist: 173.50 km.
Cat: 3Col du Pas de Peyrol/Puy MarieBELLucien Van Impe8 points 
Cat: 4Côte de RouillasESPAntonio Menendez3 points 
Cat: 1Puy de DomeBELLucien Van Impe20 points 

Average speed for all riders in stage:  31,276 km./hr.
    Place:Name:Team:Time:Km/h:
1
BELLucien Van ImpeFRAGitane-Campagnolo05:26:51  +  00:00:00=31,849 
2
FRABernard ThevenetFRAPeugeot-BP-Michelin05:27:06  +  00:00:15=31,825 
3
BELEddy MerckxITAMolteni05:27:40  +  00:00:49=31,770 
44 NEDJoop ZoetemelkFRAGan-Mercier-Hutchinson05:27:40  +  00:00:49=31,770 
55 BELAndre DoyenBELMiko-De Gribaldy05:27:59  +  00:01:08=31,739 
66 BELMichel PollentierBELCarpenter Confortluxe-Flandria05:28:01  +  00:01:10=31,736 
77 ESPPedro TorresESPSuper Ser05:28:09  +  00:01:18=31,723 
88 ESPFrancisco GaldosESPKas-Kaskol05:28:10  +  00:01:19=31,722 
99 ESPMariano MartinezFRAGitane-Campagnolo05:28:11  +  00:01:20=31,720 
1010 ITAFrancesco MoserITAFilotex05:28:21  +  00:01:30=31,704 
1111 ITAFelice GimondiITABianchi-Campagnolo05:28:35  +  00:01:44=31,681 
1212 SUIJosef FuchsITAFilotex05:28:43  +  00:01:52=31,669 
1313 ESPAndré RomeroFRAJobo-Wolber05:29:00  +  00:02:09=31,641 
1414 FRARégis OvionFRAPeugeot-BP-Michelin05:29:07  +  00:02:16=31,630 
1515 ESPVicente LopezESPKas-Kaskol05:29:07  +  00:02:16=31,630 
1616 FRARaymond MartinFRAGitane-Campagnolo05:29:10  +  00:02:19=31,625 
1717 BELJos De SchoenmaeckerITAMolteni05:29:17  +  00:02:26=31,614 
1818 NEDHennie KuiperNLDFrisol-G.B.C.05:29:30  +  00:02:39=31,593 
1919 FRARaymond PoulidorFRAGan-Mercier-Hutchinson05:29:33  +  00:02:42=31,589 
2020 DENOle RitterITAFilotex05:29:34  +  00:02:43=31,587 
2121 FRARaymond DelisleFRAPeugeot-BP-Michelin05:29:36  +  00:02:45=31,584 
2222 FRAGeorges TalbourdetFRAGan-Mercier-Hutchinson05:29:36  +  00:02:45=31,584 
2323 FRAYves HézardFRAGan-Mercier-Hutchinson05:29:42  +  00:02:51=31,574 
2424 FRAFerdinand JulienPRTSporting-Sottomayor05:29:59  +  00:03:08=31,547 
2525 FRAJean-Pierre DanguillaumeFRAPeugeot-BP-Michelin05:29:59  +  00:03:08=31,547 
2626 ESPSantiago LazcanoESPSuper Ser05:30:08  +  00:03:17=31,533 
2727 PORJoaquim AgostinhoPRTSporting-Sottomayor05:30:08  +  00:03:17=31,533 
2828 BELTony HoubrechtsITABianchi-Campagnolo05:30:13  +  00:03:22=31,525 
2929 FRAHubert MathisBELMiko-De Gribaldy05:30:18  +  00:03:27=31,517 
3030 ITASimone FraccaroITABianchi-Campagnolo05:30:21  +  00:03:30=31,512 
3131 ITAFabrizio FabbriITABianchi-Campagnolo05:30:24  +  00:03:33=31,507 
3232 ITARoberto PoggialiITAFilotex05:30:24  +  00:03:33=31,507 
3333 BELAlbert Van VlierbergheBELMiko-De Gribaldy05:30:29  +  00:03:38=31,499 
3434 ITAGiacinto SantambrogioITABianchi-Campagnolo05:30:51  +  00:04:00=31,464 
3535 ESPLuis BalagueESPSuper Ser05:30:51  +  00:04:00=31,464 
3636 ITASigfrido FontanelliITAFilotex05:31:07  +  00:04:16=31,439 
3737 ESPCarlos MeleroESPKas-Kaskol05:31:07  +  00:04:16=31,439 
3838 BELHerman Van SpringelBELCarpenter Confortluxe-Flandria05:31:13  +  00:04:22=31,430 
3939 PORFernando FerreiraPRTSporting-Sottomayor05:31:22  +  00:04:31=31,415 
4040 ESPJosé-Luis ViejoESPSuper Ser05:31:23  +  00:04:32=31,414 
4141 FRAPatrick PerretBELMiko-De Gribaldy05:31:29  +  00:04:38=31,404 
4242 COLMartìn RodríguezITABianchi-Campagnolo05:31:40  +  00:04:49=31,387 
4343 BELEduard JanssensITAMolteni05:31:43  +  00:04:52=31,382 
4444 NEDFedor Iwan Den HertogNLDFrisol-G.B.C.05:31:49  +  00:04:58=31,373 
4545 BELRonald De WitteBELCarpenter Confortluxe-Flandria05:31:55  +  00:05:04=31,363 
4646 BELJoseph SpruytITAMolteni05:31:58  +  00:05:07=31,359 
4747 BELWilly TeirlinckFRAGitane-Campagnolo05:31:58  +  00:05:07=31,359 
4848 ESPJosé CasasESPSuper Ser05:32:02  +  00:05:11=31,352 
4949 FRASylvain VasseurESPSuper Ser05:32:02  +  00:05:11=31,352 
5050 BELRené DillenFRAGitane-Campagnolo05:32:02  +  00:05:11=31,352 
5151 FRAJean-Pierre GenetFRAGan-Mercier-Hutchinson05:32:09  +  00:05:18=31,341 
5252 ESPAntonio MenendezESPKas-Kaskol05:32:09  +  00:05:18=31,341 
5353 NEDGerben KarstensFRAGitane-Campagnolo05:32:18  +  00:05:27=31,327 
5454 BELRoger LoyschBELMiko-De Gribaldy05:32:20  +  00:05:29=31,324 
5555 NEDGerard VianenFRAGan-Mercier-Hutchinson05:32:29  +  00:05:38=31,310 
5656 MARAntoine GutierrezBELMiko-De Gribaldy05:32:32  +  00:05:41=31,305 
5757 ITARenato MarchettiITAFilotex05:32:34  +  00:05:43=31,302 
5858 FRAJean-Claude MisacFRAGan-Mercier-Hutchinson05:32:38  +  00:05:47=31,296 
5959 FRARichard PianaroFRAJobo-Wolber05:32:39  +  00:05:48=31,294 
6060 FRAFrancis CampanerPRTSporting-Sottomayor05:32:41  +  00:05:50=31,291 
6161 NEDHenk PrinsenNLDFrisol-G.B.C.05:32:41  +  00:05:50=31,291 
6262 BELMarc DemeyerBELCarpenter Confortluxe-Flandria05:32:47  +  00:05:56=31,282 
6363 FRABernard BourreauFRAPeugeot-BP-Michelin05:32:51  +  00:06:00=31,275 
6464 FRAJoel HauvieuxFRAJobo-Wolber05:32:51  +  00:06:00=31,275 
6565 FRARoger LegeayFRAJobo-Wolber05:32:51  +  00:06:00=31,275 
6666 ESPJosé PesarrodonaESPKas-Kaskol05:32:56  +  00:06:05=31,268 
6767 NEDGerrie KnetemannFRAGan-Mercier-Hutchinson05:33:05  +  00:06:14=31,253 
6868 BELJosé De CauwerNLDFrisol-G.B.C.05:33:19  +  00:06:28=31,232 
6969 ESPJosé GrandeESPKas-Kaskol05:33:25  +  00:06:34=31,222 
7070 FRAMaurice Le GuillouxFRAGitane-Campagnolo05:33:31  +  00:06:40=31,213 
7171 BELRik Van LindenITABianchi-Campagnolo05:33:31  +  00:06:40=31,213 
7272 BELHerman BeysensITAMolteni05:33:36  +  00:06:45=31,205 
7373 FRARobert MintkiewiczFRAGitane-Campagnolo05:34:16  +  00:07:25=31,143 
7474 BELFrans Van VlierbergheBELMiko-De Gribaldy05:34:16  +  00:07:25=31,143 
7575 BELJoseph HuysmansITAMolteni05:34:25  +  00:07:34=31,129 
7676 FRAMichel PerinFRAGan-Mercier-Hutchinson05:34:29  +  00:07:38=31,123 
7777 PORJosé AmaroPRTSporting-Sottomayor05:34:29  +  00:07:38=31,123 
7878 FRAGuy LeleuFRAGitane-Campagnolo05:34:29  +  00:07:38=31,123 
7979 FRAGerard MoneyronBELCarpenter Confortluxe-Flandria05:34:36  +  00:07:45=31,112 
8080 BELWalter GodefrootBELCarpenter Confortluxe-Flandria05:34:43  +  00:07:52=31,101 
8181 ITAGiovanni CavalcantiITABianchi-Campagnolo05:34:43  +  00:07:52=31,101 
8282 ITAArnaldo CaverzasiITAFilotex05:34:59  +  00:08:08=31,076 
8383 ITAMauro SimonettiITAFilotex05:35:07  +  00:08:16=31,064 
8484 FRAAlain SantyFRAGitane-Campagnolo05:35:28  +  00:08:37=31,031 
8585 BELLudo DelcroixITAMolteni05:35:34  +  00:08:43=31,022 
8686 FRACharly RouxelFRAPeugeot-BP-Michelin05:35:40  +  00:08:49=31,013 
8787 BELKarel RottiersITAMolteni05:35:55  +  00:09:04=30,990 
8888 FRARegis DelepineBELCarpenter Confortluxe-Flandria05:36:00  +  00:09:09=30,982 
8989 FRAPatrick BeonFRAPeugeot-BP-Michelin05:36:02  +  00:09:11=30,979 
9090 ITASandro QuintarelliITAJollyceramica05:36:08  +  00:09:17=30,970 
9191 BELMarc LievensITAMolteni05:36:40  +  00:09:49=30,921 
9292 FRASerge ParsaniITABianchi-Campagnolo05:36:50  +  00:09:59=30,905 
9393 ITAPietro DallaiITAFilotex05:36:57  +  00:10:06=30,895 
9494 FRAGuy SibilleFRAPeugeot-BP-Michelin05:37:00  +  00:10:09=30,890 
9595 FRAClaude MagniFRAJobo-Wolber05:37:25  +  00:10:34=30,852 
9696 ITAPierino GavazziITAJollyceramica05:37:27  +  00:10:36=30,849 
9797 ITALuigi CastellettiITABianchi-Campagnolo05:37:34  +  00:10:43=30,838 
9898 BELFrans MintjensITAMolteni05:37:40  +  00:10:49=30,829 
9999 FRAJoël MillardFRAJobo-Wolber05:37:53  +  00:11:02=30,809 
100100 FRAAndré MolletPRTSporting-Sottomayor05:38:06  +  00:11:15=30,790 
101101 ENGBarry HobanFRAGan-Mercier-Hutchinson05:38:08  +  00:11:17=30,787 
102102 AUSDonald AllanNLDFrisol-G.B.C.05:38:26  +  00:11:35=30,759 
103103 FRAJosé CatieauFRAPeugeot-BP-Michelin05:38:28  +  00:11:37=30,756 
104104 FRAJacques BoulasFRAJobo-Wolber05:38:58  +  00:12:07=30,711 
105105 NEDGerard KamperNLDFrisol-G.B.C.05:39:22  +  00:12:31=30,675 
106106 ITAAlessio AntoniniITAJollyceramica05:48:00  +  00:21:09=29,914 
107107 ITADonato GiulianiITAJollyceramica05:48:00  +  00:21:09=29,914 

Withdrawls: 3
 
Rider
Team
Reason
38  NORKnut KnudsenITAJollyceramicaDid not finish
126  NEDBen KokenNLDFrisol-G.B.C.Did not start
133  FRAAlain CiganaFRAJobo-WolberDid not finish
Todays birthdays.

1883  Albert Niepçeron
1911  Camille Leroy
1914  Gaston Grimbert
1940  José Momeñe
1956  Régis Clère
1957  Alfonso Dal Pian
1960  Samuel Cabrera
1967  Christophe Capelle
1976  Dimitiri Fofonov
1980  Giampaolo Caruso
1983  Jean-Marc Marino




Visits: